sat.trackr.live / text

‹ back to catalog

STARLINK-36259

NORAD 67106 · 2025-299E

PAYLOAD ACTIVE UNKNOWN

§ Identity

Operator
Country
US
Launch date
2025-12-15
Launch site
AFETR
Launch vehicle
Mass (kg)
RCS (m²)

Purposes: comms

External: N2YO · Heavens-Above · Gunter

§ Orbital elements

Epoch: 2026-09-20T01:01:25.150080Z

Period
94.27 min
Inclination
42.9976°
Eccentricity
0.0000783
Mean motion
15.27590289 rev/d
Perigee alt
482.5 km
Apogee alt
483.6 km
Semi-major
6,861.2 km
B*
3.6136e-4
RAAN
151.0754°
Arg perigee
289.8504°
Mean anomaly
70.2264°
Rev number
4,284

§ Raw data

STARLINK-362591 67106U 25299E   26263.04265220  .00009698  00000+0  36136-3 0  99902 67106  42.9976 151.0754 0000783 289.8504  70.2264 15.27590289 42843

JSON: /api/v1/satellites/67106 · /tle

For live sub-satellite position, see the globe view (requires WebGL).

§ Visibility from observer

Set your observer location to see the next 7 days of passes ≥ 10°. The values pass through the URL so the page stays shareable.

No JS? Fill the form by hand. The geolocation button needs JavaScript.